Location: Julian California
(33.0790°N, 116.6010°W)
Time: 11:17:38
(UTC-07:00)

Cosmos 2227 Rocket - Pass Details

Date: 12 July 2018
Orbit: 840 x 845 km, 71.0° (Epoch: 22 September)

Event Time Altitude Azimuth Distance (km) Brightness Sun altitude
Rises 23:02:12 0° 349° (N) 3,405 6.4 -29.2°
Reaches altitude 10° 23:04:54 10° 359° (N) 2,466 5.4 -29.4°
Enters shadow 23:09:28 33° 52° (NE) 1,381 3.3 -29.9°
